Location: ????????
(60.5616°N, 46.8254°E)
Time: 22:51:50
(UTC+00:00)

ARGOS - Pass Details

Date: 18 February 2020
Orbit: 819 x 835 km, 98.5° (Epoch: 09 April)

Event Time Altitude Azimuth Distance (km) Brightness Sun altitude
Exits shadow 16:51:27 - 180° (S) 3,018 5.9 -22.9°
Reaches altitude 10° 16:52:57 10° 184° (S) 2,444 5.5 -23.0°
Maximum altitude 16:58:14 51° 260° (W) 1,051 4.0 -23.6°
Drops below altitude 10° 17:03:33 10° 336° (NNW) 2,464 6.2 -24.3°
Sets 17:06:00 0° 342° (NNW) 3,402 6.9 -24.5°
